Simultaneous Nadir Overpasses (SNOs) Predictions

Prediction of SNOs between LANDSAT-8 and METOP-B Satellite Orbit:

Table of predicted SNOs for the next 14.0 days since TLE Epoch: 12/7/2019
Index Date (LANDSAT-8) Time (LANDSAT-8) Lat,Lon (LANDSAT-8) SZA (LANDSAT-8 ) Date (METOP-B) Time (METOP-B) Lat,Lon (METOP-B) SZA (METOP-B ) Distance(km) Time Diff (sec)
1 12/08/2019 21:32:16 81.09,-103.66 105.92 12/08/2019 21:31:44 81.10,-103.53 105.93 2.17 32
2 12/08/2019 22:21:42 -81.11, 64.30 74.03 12/08/2019 22:22:23 -81.12, 64.39 74.00 1.60 41
3 12/11/2019 17:06:31 81.09, -37.25 106.14 12/11/2019 17:06:09 81.09, -37.39 106.12 2.41 22
4 12/11/2019 17:55:57 -81.11, 130.73 73.81 12/11/2019 17:56:48 -81.11, 130.55 73.81 3.19 51
5 12/14/2019 12:40:45 81.09, 29.12 106.30 12/14/2019 12:40:32 81.09, 29.11 106.30 0.52 13
6 12/14/2019 13:30:11 -81.11,-162.87 73.65 12/14/2019 13:31:11 -81.11,-162.93 73.63 1.05 60
7 12/17/2019 08:14:59 81.10, 95.83 106.44 12/17/2019 08:14:55 81.11, 95.99 106.46 2.67 4
8 12/17/2019 09:04:25 -81.13, -96.13 73.50 12/17/2019 09:05:34 -81.13, -96.03 73.47 1.68 69
9 12/20/2019 02:59:49 -81.07, -5.82 73.59 12/20/2019 02:58:41 -81.07, -5.92 73.63 1.84 68




NCC Satellite Simultaneous Nadir Overpasses (SNOs) Prediction Service
